Location: Antin
(43.3330°N, 0.2804°E)
Time: 04:37:05
(UTC+00:00)

Cosmos 2227 Rocket - Pass Details

Date: 16 October 2021
Orbit: 839 x 845 km, 71.0° (Epoch: 08 December)

Event Time Altitude Azimuth Distance (km) Brightness Sun altitude
Rises 17:41:58 0° 335° (NNW) 3,413 5.6 -5.8°
Reaches altitude 10° 17:44:25 10° 335° (NNW) 2,474 4.9 -6.3°
Maximum altitude 17:50:07 89° 66° (ENE) 850 2.3 -7.3°
Drops below altitude 10° 17:55:46 10° 157° (SSE) 2,455 4.4 -8.3°
Sets 17:58:12 0° 157° (SSE) 3,385 5.1 -8.8°
